STARLINK-4039 (52683 NORAD) Tracking and Keplerian Element Data

This shows tracking and keplerian element data for the satellite.

Feedback or suggestion? Click here.




ElementValue
Catalog52683
NameSTARLINK-4039
Epoch Orbit1728
Epoch Day248.16667824
Epoch Year2022
RAAN137.0958
Inclination53.2153
Eccentricity0.0002269
Argument of Perigee59.0126
Mean Anonmoly176.4734
Mean Motion15.08818657
Decay Rate0.0004284
L11 52683U 22053AD 22248.16667824 .00042840 00000+0 26950-2 0 9995
L22 52683 53.2153 137.0958 0002269 59.0126 176.4734 15.08818657 17289

Live tracking and technical data element details for STARLINK-4039 (NORAD 52683). STARLINK-4039 can be tracked NOW for your location showing map with azimuth and elevation plus other details from your city location.

Track the satellite on the map from your city or location and see movement details for azimuth, elevation, latitude, longitude, range, height, and movement on the map or in text.







IsCatalogInMostPopularTable: catalog: 52683, numindb: 7
Update: records affected: 1



GetName: 52683 STARLINK-4039

Hit Count: updated at: Sun, 25 Sep 2022 07:59:49 GMT